Regional Weather Roundup
Issued by NWS

Home | Current Version | Previous Version | Graphics & Text | Print | Product List | Glossary On
Versions: 1 2 3 4 5 6 7 8 9 10 11 12 13 14 15 16 17 18 19 20 21 22 23 24 25 26 27 28 29 30 31 32 33 34 35 36 37 38 39 40 41 42 43 44 45 46 47 48 49 50
000
ASUS43 KDTX 301910
RWRMI
MICHIGAN HOURLY REGIONAL WEATHER ROUNDUP
NATIONAL WEATHER SERVICE DETROIT/PONTIAC MI
200 PM EST FRI JAN 30 2015

NOTE: "FAIR" INDICATES FEW OR NO CLOUDS BELOW 12,000 FEET WITH NO
SIGNIFICANT WEATHER AND/OR OBSTRUCTION TO VISIBILITY.

MIZ047>049-052>055-059>063-066>070-074>076-081>083-302000-
SOUTHEAST LOWER MICHIGAN

CITY           SKY/WX    TMP DP  RH WIND       PRES   REMARKS
ADRIAN         MOSUNNY   21   7  54 N10       30.43F WCI  10
ALMA           PTSUNNY   20   7  56 N8        30.44F WCI  11
ANN ARBOR      SUNNY     20   5  52 N16       30.42F WCI   6
BAD AXE        MOSUNNY   12   2  66 NW14      30.42S WCI  -4
CARO           SUNNY     14   2  57 NW8       30.43F WCI   3
DETROIT CITY   SUNNY     20   2  45 N13       30.42F WCI   7
DETROIT        MOSUNNY   20   4  50 W14       30.43F WCI   7
FLINT          MOSUNNY   19   3  49 NW10      30.43F WCI   7
GROSSE ILE     SUNNY     19   3  49 N12       30.42S WCI   7
HILLSDALE      PTSUNNY   20   7  56 NW7       30.39F WCI  12
HOWELL         SUNNY     18   4  54 NW8       30.41S WCI   8

CITY           SKY/WX    TMP DP  RH WIND       PRES   REMARKS
JACKSON        CLOUDY    22   8  55 N7        30.42F WCI  13
LAMBERTVILLE   SUNNY     23   7  50 N8        30.44S WCI  14
LANSING        CLOUDY    20   7  57 NW9       30.44F WCI   9
LAPEER         FAIR      14   0  53 NW12G18   30.42S WCI   0
MASON          CLOUDY    20   8  59 N12       30.42F WCI   8
MONROE         SUNNY     19   7  58 NW12G17   30.42S WCI   7
MT. CLEMENS    MOSUNNY   16   1  51 N17       30.41R WCI   0
PONTIAC        MOSUNNY   16   1  51 N15G21    30.39F WCI   1
PORT HOPE        N/A     13   4  67 NW14G22   30.40F WCI  -2
PORT HURON     CLOUDY    14   5  67 NW17G26   30.41R WCI  -3
TRI CITIES     SUNNY     20   3  48 N10       30.44F WCI   9
TROY           SUNNY     19   2  46 NW10G17   30.44S WCI   8
SAGINAW HB     MOSUNNY   19   5  53 NW9G17    30.44F WCI   9
$$
MIZ043>046-050>051-056>058-064>065-071>073-077>080-302000-
SOUTHWEST LOWER MICHIGAN

CITY           SKY/WX    TMP DP  RH WIND       PRES   REMARKS
BATTLE CREEK   MOSUNNY   24   8  50 W8        30.43F WCI  15
BENTON HARBOR  LGT SNOW  23  16  74 VRB5      30.48F WCI  17
BIG RAPIDS     PTSUNNY   21   8  57 W6        30.41F WCI  14
COLDWATER      PTSUNNY   23   9  55 NW8       30.43S WCI  14
FREMONT        CLOUDY    20   8  59 NW5       30.45F WCI  14
HOLLAND        CLOUDY    24  10  55 NW6       30.48S WCI  17
GRAND RAPIDS   PTSUNNY   23   8  52 N7        30.44F WCI  15
IONIA          CLOUDY    21  10  62 NW3       30.44S
KALAMAZOO      PTSUNNY   24  10  55 N12       30.45F WCI  13
LUDINGTON      FLURRIES  21  11  65 N9        30.46F WCI  10
MARSHALL       CLOUDY    22   9  56 N5        30.42F WCI  16
MOUNT PLEASANT CLOUDY    19   5  55 NW5       30.43F WCI  12
MUSKEGON       FLURRIES  22  10  60 NW10      30.48F WCI  11
SOUTH HAVEN    FLURRIES  25  15  67 NW7       30.47F WCI  17
$$
MIZ016>042-302000-
NORTHERN LOWER MICHIGAN

CITY           SKY/WX    TMP DP  RH WIND       PRES   REMARKS
ALPENA         MOSUNNY   11   0  61 NW10      30.43F WCI  -3
BEAVER ISLAND  CLOUDY    15   8  73 CALM      30.43F
CADILLAC       CLOUDY    16   7  67 N6        30.37F WCI   7
CHARLEVOIX     CLOUDY    15   6  67 CALM      30.47S
FRANKFORT      FLURRIES  18  11  74 NW7       30.46F WCI   9
GAYLORD        SUNNY     13   1  59 NW9       30.37F WCI   1
GRAYLING       MOSUNNY   16   2  55 NW9       30.40F WCI   4
HARBOR SPRINGS SUNNY     13   1  60 SW5       30.43F WCI   5
HOUGHTON LAKE  MOSUNNY   16   1  51 N8        30.39F WCI   5
MANISTEE       CLOUDY    19   9  63 N8        30.46F WCI   9
OSCODA         SUNNY     13  -1  52 N14       30.42F WCI  -2
PELLSTON       SUNNY     14   1  56 CALM      30.43F
ROGERS CITY    MOSUNNY   11   5  76 NW7       30.44F WCI   0
TRAVERSE CITY  CLOUDY    17   8  67 CALM      30.44F
$$
MIZ007>008-015-302000-
EASTERN UPPER MICHIGAN

CITY           SKY/WX    TMP DP  RH WIND       PRES   REMARKS
KINROSS        SUNNY     12  -2  52 W5        30.41F WCI   4
MACKINAC ISLAN SUNNY      8  -1  66 CALM      30.42F
NEWBERRY       CLOUDY    10   6  81 S7        30.39F WCI   0
S. S. MARIE    SUNNY      9  -4  55 CALM      30.40F
MUNISING         N/A     17   7  64 W7        30.42F WCI   8
$$
MIZ004>006-011>014-085-302000-
CENTRAL UPPER MICHIGAN

CITY           SKY/WX    TMP DP  RH WIND       PRES   REMARKS
MANISTIQUE     CLOUDY    16   9  72 W12       30.42F WCI   3
ESCANABA       MOSUNNY   16   0  48 W9        30.45F WCI   4
MENOMINEE      MOSUNNY   18   1  49 CALM      30.46F
SAWYER-GWINN   MOSUNNY   14   0  52 W5        30.38F WCI   6
$$
MIZ001>003-009>011-084-302000-
WESTERN UPPER MICHIGAN

CITY           SKY/WX    TMP DP  RH WIND       PRES   REMARKS
IRON MOUNTAIN  MOSUNNY   15   2  56 W5        30.38F WCI   8
HOUGHTON       CLOUDY    12   6  77 S7        30.36F WCI   1
COPPER HARBOR    N/A     13   4  67 N5        30.40F WCI   5
IRONWOOD       CLOUDY    16   3  57 SW7       30.34F WCI   6
$$

ABBREVIATIONS USED IN REMARKS
   TC - TEMPERATURE IN CELSIUS
  WCI - WIND CHILL INDEX
   HX - HEAT INDEX
  VSB - VISIBILITY



USA.gov is the U.S. government's official web portal to all federal, state and local government web resources and services.